TimeCST,TemperatureF,Dew PointF,Humidity,Sea Level PressureIn,VisibilityMPH,Wind Direction,Wind SpeedMPH,Gust SpeedMPH,PrecipitationIn,Events,Conditions,WindDirDegrees,DateUTC
7:35 AM,52.3,50.9,95,29.98,0.2,Calm,Calm,-,N/A,Fog,Fog,0,2012-12-06 13:35:00
7:55 AM,52.7,51.1,94,29.98,0.2,Calm,Calm,-,N/A,Fog,Fog,0,2012-12-06 13:55:00
8:15 AM,53.8,52.2,94,29.99,0.8,Calm,Calm,-,N/A,,Mist,0,2012-12-06 14:15:00
8:35 AM,55.2,53.6,94,29.99,1.2,Calm,Calm,-,N/A,,Mist,0,2012-12-06 14:35:00
8:55 AM,57.6,55.8,94,29.99,4.0,Calm,Calm,-,N/A,,Mist,0,2012-12-06 14:55:00
9:15 AM,59.5,57.4,93,29.99,4.0,Calm,Calm,-,N/A,,Mist,0,2012-12-06 15:15:00
9:35 AM,61.7,58.5,89,29.99,5.0,Calm,Calm,-,N/A,,Mist,0,2012-12-06 15:35:00
9:55 AM,65.1,60.1,84,29.99,5.0,Calm,Calm,-,N/A,,Haze,0,2012-12-06 15:55:00
10:15 AM,68.4,60.8,77,29.99,7.0,Calm,Calm,-,N/A,,Unknown,0,2012-12-06 16:15:00
10:35 AM,70.7,61.9,74,29.98,10.0,Calm,Calm,-,N/A,,Unknown,0,2012-12-06 16:35:00
10:55 AM,73.4,63.0,70,29.98,10.0,South,4.6,-,N/A,,Unknown,170,2012-12-06 16:55:00
11:15 AM,75.4,62.4,64,29.97,10.0,South,3.5,-,N/A,,Unknown,170,2012-12-06 17:15:00
11:35 AM,76.8,62.8,62,29.96,10.0,SSE,6.9,-,N/A,,Unknown,160,2012-12-06 17:35:00
11:55 AM,75.6,62.8,64,29.95,10.0,SSE,11.5,-,N/A,,Unknown,160,2012-12-06 17:55:00
12:15 PM,78.1,62.6,59,29.94,10.0,South,6.9,-,N/A,,Unknown,190,2012-12-06 18:15:00
12:35 PM,78.1,61.3,56,29.93,10.0,South,10.4,16.1,N/A,,Unknown,170,2012-12-06 18:35:00
12:55 PM,79.2,60.1,52,29.91,10.0,South,6.9,-,N/A,,Unknown,180,2012-12-06 18:55:00
1:15 PM,80.1,59.5,49,29.90,10.0,SSW,8.1,-,N/A,,Unknown,200,2012-12-06 19:15:00
1:35 PM,80.8,58.5,46,29.89,10.0,South,9.2,-,N/A,,Unknown,170,2012-12-06 19:35:00
1:55 PM,81.1,58.8,46,29.88,10.0,South,6.9,-,N/A,,Unknown,190,2012-12-06 19:55:00
2:15 PM,81.3,58.8,46,29.87,10.0,SE,6.9,-,N/A,,Unknown,130,2012-12-06 20:15:00
2:35 PM,81.5,58.3,45,29.86,10.0,SE,6.9,-,N/A,,Unknown,130,2012-12-06 20:35:00
2:55 PM,81.9,58.1,44,29.86,10.0,SE,6.9,-,N/A,,Unknown,130,2012-12-06 20:55:00
3:15 PM,81.9,59.0,46,29.85,10.0,SSE,6.9,-,N/A,,Unknown,160,2012-12-06 21:15:00
3:35 PM,82.2,57.7,43,29.85,10.0,SE,6.9,-,N/A,,Unknown,140,2012-12-06 21:35:00
3:55 PM,81.5,59.4,47,29.84,10.0,SE,8.1,-,N/A,,Unknown,130,2012-12-06 21:55:00
4:15 PM,81.3,57.2,44,29.83,10.0,SSE,8.1,-,N/A,,Unknown,160,2012-12-06 22:15:00
4:35 PM,80.8,58.1,46,29.84,10.0,SSE,8.1,-,N/A,,Unknown,150,2012-12-06 22:35:00
4:55 PM,79.9,58.5,48,29.83,10.0,SSE,6.9,-,N/A,,Unknown,160,2012-12-06 22:55:00
5:15 PM,79.0,59.2,51,29.83,10.0,SSE,5.8,-,N/A,,Unknown,160,2012-12-06 23:15:00
5:35 PM,77.5,60.1,55,29.84,10.0,SSE,8.1,-,N/A,,Unknown,160,2012-12-06 23:35:00
5:55 PM,76.1,59.7,57,29.84,10.0,SSE,6.9,-,N/A,,Unknown,150,2012-12-06 23:55:00
6:15 PM,75.2,59.5,58,29.84,10.0,SSE,8.1,-,N/A,,Unknown,160,2012-12-07 00:15:00
6:35 PM,74.1,59.0,59,29.85,10.0,SSE,8.1,-,N/A,,Unknown,160,2012-12-07 00:35:00
6:55 PM,72.9,59.4,62,29.86,10.0,SSE,6.9,-,N/A,,Unknown,150,2012-12-07 00:55:00
7:15 PM,72.0,60.1,66,29.86,10.0,SSE,6.9,-,N/A,,Unknown,150,2012-12-07 01:15:00
7:35 PM,71.1,60.3,69,29.87,10.0,SSE,8.1,-,N/A,,Unknown,150,2012-12-07 01:35:00
7:55 PM,70.5,61.0,72,29.87,10.0,SE,6.9,-,N/A,,Unknown,140,2012-12-07 01:55:00
8:35 PM,69.3,61.7,77,29.87,10.0,SE,6.9,-,N/A,,Unknown,140,2012-12-07 02:35:00
8:55 PM,68.5,61.7,79,29.87,10.0,SE,4.6,-,N/A,,Unknown,140,2012-12-07 02:55:00
9:15 PM,67.6,61.7,81,29.88,10.0,SSE,4.6,-,N/A,,Unknown,150,2012-12-07 03:15:00
9:35 PM,67.3,62.1,83,29.88,10.0,SSE,4.6,-,N/A,,Unknown,150,2012-12-07 03:35:00
9:55 PM,66.9,62.1,84,29.88,10.0,SSE,4.6,-,N/A,,Unknown,150,2012-12-07 03:55:00
10:15 PM,66.6,62.6,87,29.88,10.0,SSE,4.6,-,N/A,,Unknown,150,2012-12-07 04:15:00
10:35 PM,66.4,62.4,87,29.87,10.0,SSE,4.6,-,N/A,,Unknown,160,2012-12-07 04:35:00
10:55 PM,66.6,62.6,87,29.87,10.0,SSE,4.6,-,N/A,,Unknown,150,2012-12-07 04:55:00
11:15 PM,66.7,62.8,87,29.87,10.0,SSE,5.8,-,N/A,,Unknown,150,2012-12-07 05:15:00
11:35 PM,66.6,62.8,88,29.86,10.0,SSE,5.8,-,N/A,,Unknown,150,2012-12-07 05:35:00
11:55 PM,66.4,62.8,88,29.86,10.0,SE,4.6,-,N/A,,Unknown,140,2012-12-07 05:55:00